Find Starlink 31361

NORAD ID: 58974 Int'l Des: 2024-031 Owner: SPXS Country: US Constellation: starlink operational
LEOCIRCULAR

リアルタイム位置

3D地球を読み込み中...

Starlink 31361について

説明を読み込み中...

次回通過

Passes for default location (London). Set your location on the main map for personalized predictions.

高度履歴

Loading altitude history...

軌道要素

1 58974U 24031K 26125.44783161 .00003252 00000-0 12184-3 0 9994
2 58974 53.1597 33.0173 0001002 94.4503 265.6612 15.30211378125221
Epoch: May 5, 2026 • Age: 11 hours

現在のステータス

高度 481.0 km
速度 7.63 km/s
衛星直下点 53.11°N, 81.39°W
打ち上げ日 Feb 15, 2024
運用期間 2.2 years
タイプ internet

技術仕様

分類 Payload
質量 730.00 kg
乾燥質量 700.00 kg
総質量 730.00 kg
長さ 0.30 m
直径 4.10 m
スパン 29.00 m
形状 Box + pan
製造者 SPXS
バスタイプ Starlink V2M
フェーズステータス In Orbit
所有者/国 SPXS/US

Most Searched